Location: Miles
(41.4492°N, 81.6087°W)
Time: 19:26:39
(UTC+00:00)

Transit 2A - Pass Details

Date: 19 September 2024
Orbit: 590 x 960 km, 66.7° (Epoch: 05 October)

Event Time Altitude Azimuth Distance (km) Brightness Sun altitude
Rises 22:13:23 0° 192° (SSW) 3,377 9.6 13.1°
Reaches altitude 10° 22:15:48 10° 187° (S) 2,497 8.9 12.6°
Maximum altitude 22:21:27 51° 113° (ESE) 1,138 6.7 11.6°
Drops below altitude 10° 22:27:30 10° 39° (NE) 2,679 8.4 10.5°
Sets 22:30:10 0° 35° (NE) 3,644 9.1 10.0°
